Terminal Aerodrome Forecast
Issued by NWS

Home | Current Version | Previous Version | Text Only | Print | Product List | Glossary Off
Versions: 1 2 3 4 5 6 7 8 9 10 11 12 13 14 15 16 17 18 19 20 21 22 23 24 25 26 27 28 29 30 31

000
FTUS43 KLOT 201100
TAFORD
TAF
KORD 201128Z 2012/2118 18010KT P6SM BKN300
     FM201600 20012KT P6SM FEW150 BKN250
     FM210100 19007KT P6SM BKN150
     FM211500 21010KT P6SM SCT060 BKN100=

USA.gov is the U.S. government's official web portal to all federal, state and local government web resources and services.